Weather History for Crestview, FL

Change the Weather History Date:

Friday, January 25, 2013

  Actual Average Record
Temperature  
Mean Temperature 55 °F -  
Max Temperature 69 °F - - ()
Min Temperature 41 °F - - ()
Degree Days  
Heating Degree Days 10    
Growing Degree Days 5 (Base 50)    
Moisture  
Dew Point 45 °F    
Average Humidity 93    
Maximum Humidity 100    
Minimum Humidity 53    
Precipitation  
Precipitation 0.00 in - - ()
Sea Level Pressure  
Sea Level Pressure 30.28 in    
Wind  
Wind Speed 1 mph (SSW)    
Max Wind Speed 16 mph    
Max Gust Speed 21 mph    
Visibility 3 miles    
Events Fog    
T = Trace of Precipitation, MM = Missing Value Source: NWS Daily Summary

Daily Weather History Graph

Daily Weather History Graph

Search for Another Location

Airport:

Trip Planner

Search our weather history database for the weather conditions in past years. The results will help you decide how hot, cold, wet, or windy it might be!

Date:

Astronomy

Jan. 25, 2013 Rise Set
Actual Time 6:40 AM CST 5:16 PM CST
Civil Twilight 6:15 AM CST 5:41 PM CST
Nautical Twilight 5:46 AM CST 6:11 PM CST
Astronomical Twilight 5:17 AM CST 6:39 PM CST
Moon 4:12 PM CST 5:19 AM CST
Length of Visible Light 11h 26m
Length of Day
10h 35m
Waxing Gibbous, 98% of the Moon is Illuminated
Jan 25
Waxing Gibbous
Jan 26
Full
Feb 3
Last Quarter
Feb 10
New
Feb 17
First Quarter

Hourly Weather History & Observations

Time (CST) Temp. Windchill Dew Point Humidity Pressure Visibility Wind Dir Wind Speed Gust Speed Precip Events Conditions
12:36 AM 46.4 °F - 44.6 °F 93% 30.28 in 1.8 mi Calm Calm - N/A   Clear
12:37 AM 46.4 °F - 44.6 °F 93% 30.28 in 1.0 mi Calm Calm - N/A   Clear
12:38 AM 46.4 °F - 44.6 °F 93% 30.28 in 0.8 mi Calm Calm - N/A   Clear
12:40 AM 46.4 °F - 44.6 °F 93% 30.29 in 0.5 mi Calm Calm - N/A Fog Fog
12:44 AM 46.4 °F - 46.4 °F 100% 30.29 in 0.2 mi Calm Calm - N/A Fog Fog
12:46 AM 46.4 °F - 46.4 °F 100% 30.29 in 0.5 mi Calm Calm - N/A Fog Fog
12:50 AM 46.4 °F - 46.4 °F 100% 30.29 in 0.8 mi Calm Calm - N/A   Scattered Clouds
12:55 AM 46.9 °F - 46.0 °F 97% 30.29 in 0.8 mi Calm Calm - N/A   Mostly Cloudy
1:16 AM 46.4 °F - 46.4 °F 100% 30.29 in 1.0 mi Calm Calm - N/A   Overcast
1:17 AM 46.4 °F - 46.4 °F 100% 30.29 in 1.5 mi Calm Calm - N/A   Overcast
1:18 AM 46.4 °F - 46.4 °F 100% 30.29 in 2.0 mi Calm Calm - N/A   Overcast
1:19 AM 46.4 °F - 46.4 °F 100% 30.28 in 3.0 mi Calm Calm - N/A   Overcast
1:55 AM 46.9 °F - 45.3 °F 94% 30.28 in 3.0 mi Calm Calm - N/A   Partly Cloudy
2:17 AM 46.4 °F - 44.6 °F 93% 30.28 in 2.0 mi Calm Calm - N/A   Clear
2:18 AM 46.4 °F - 44.6 °F 93% 30.27 in 1.2 mi Calm Calm - N/A   Clear
2:19 AM 46.4 °F - 44.6 °F 93% 30.28 in 1.0 mi Calm Calm - N/A   Clear
2:20 AM 46.4 °F - 44.6 °F 93% 30.27 in 0.8 mi Calm Calm - N/A   Clear
2:29 AM 44.6 °F - 42.8 °F 93% 30.27 in 0.5 mi Calm Calm - N/A Fog Fog
2:33 AM 44.6 °F - 44.6 °F 100% 30.27 in 0.8 mi Calm Calm - N/A   Clear
2:38 AM 46.4 °F - 44.6 °F 93% 30.27 in 1.0 mi Calm Calm - N/A   Clear
2:39 AM 46.4 °F - 44.6 °F 93% 30.27 in 1.5 mi Calm Calm - N/A   Clear
2:40 AM 46.4 °F - 44.6 °F 93% 30.27 in 2.5 mi Calm Calm - N/A   Clear
2:41 AM 46.4 °F - 44.6 °F 93% 30.27 in 3.0 mi Calm Calm - N/A   Clear
2:50 AM 46.4 °F - 44.6 °F 93% 30.28 in 2.0 mi Calm Calm - N/A   Clear
2:51 AM 46.4 °F - 44.6 °F 93% 30.28 in 1.5 mi Calm Calm - N/A   Clear
2:52 AM 46.4 °F - 44.6 °F 93% 30.28 in 1.2 mi Calm Calm - N/A   Clear
2:54 AM 46.4 °F - 44.6 °F 93% 30.28 in 0.8 mi Calm Calm - N/A   Clear
2:55 AM 46.2 °F - 45.3 °F 97% 30.28 in 1.0 mi Calm Calm - N/A   Clear
2:56 AM 46.4 °F - 44.6 °F 93% 30.27 in 0.5 mi Calm Calm - N/A Fog Fog
3:19 AM 44.6 °F - 44.6 °F 100% 30.27 in 0.8 mi Calm Calm - N/A   Clear
3:21 AM 44.6 °F - 44.6 °F 100% 30.27 in 1.2 mi Calm Calm - N/A   Clear
3:22 AM 44.6 °F - 44.6 °F 100% 30.27 in 2.0 mi Calm Calm - N/A   Clear
3:23 AM 44.6 °F - 44.6 °F 100% 30.27 in 3.0 mi Calm Calm - N/A   Clear
3:35 AM 44.6 °F - 42.8 °F 93% 30.27 in 2.5 mi Calm Calm - N/A   Clear
3:39 AM 44.6 °F - 42.8 °F 93% 30.27 in 2.0 mi Calm Calm - N/A   Clear
3:40 AM 44.6 °F - 42.8 °F 93% 30.27 in 1.8 mi Calm Calm - N/A   Clear
3:42 AM 44.6 °F - 42.8 °F 93% 30.27 in 1.2 mi Calm Calm - N/A   Clear
3:49 AM 44.6 °F - 44.6 °F 100% 30.27 in 1.0 mi Calm Calm - N/A   Clear
3:54 AM 44.6 °F - 44.6 °F 100% 30.27 in 0.5 mi Calm Calm - N/A Fog Fog
3:55 AM 45.1 °F - 44.2 °F 97% 30.27 in 0.8 mi Calm Calm - N/A   Clear
3:57 AM 44.6 °F - 44.6 °F 100% 30.27 in 0.2 mi Calm Calm - N/A Fog Fog
4:25 AM 42.8 °F - 42.8 °F 100% 30.27 in 0.5 mi Calm Calm - N/A Fog Fog
4:30 AM 42.8 °F - 42.8 °F 100% 30.27 in 0.8 mi Calm Calm - N/A   Clear
4:32 AM 42.8 °F - 42.8 °F 100% 30.27 in 1.0 mi Calm Calm - N/A   Clear
4:33 AM 42.8 °F - 42.8 °F 100% 30.27 in 1.2 mi Calm Calm - N/A   Clear
4:35 AM 42.8 °F - 42.8 °F 100% 30.27 in 1.5 mi Calm Calm - N/A   Clear
4:39 AM 42.8 °F - 42.8 °F 100% 30.27 in 1.2 mi Calm Calm - N/A   Clear
4:40 AM 42.8 °F - 42.8 °F 100% 30.27 in 1.0 mi Calm Calm - N/A   Clear
4:41 AM 42.8 °F - 42.8 °F 100% 30.27 in 0.8 mi Calm Calm - N/A   Clear
4:42 AM 42.8 °F - 42.8 °F 100% 30.27 in 0.5 mi Calm Calm - N/A Fog Fog
4:51 AM 42.8 °F - 42.8 °F 100% 30.27 in 0.8 mi Calm Calm - N/A   Clear
4:54 AM 42.8 °F - 42.8 °F 100% 30.28 in 1.5 mi Calm Calm - N/A   Clear
4:55 AM 42.6 °F - 42.3 °F 99% 30.27 in 1.0 mi Calm Calm - N/A   Clear
4:58 AM 42.8 °F - 41.0 °F 93% 30.27 in 2.0 mi Calm Calm - N/A   Clear
5:01 AM 42.8 °F - 41.0 °F 93% 30.27 in 2.5 mi Calm Calm - N/A   Clear
5:02 AM 42.8 °F - 41.0 °F 93% 30.27 in 3.0 mi Calm Calm - N/A   Clear
5:55 AM 43.5 °F - 41.7 °F 93% 30.29 in 5.0 mi Calm Calm - N/A   Clear
6:04 AM 42.8 °F - 41.0 °F 93% 30.30 in 2.5 mi Calm Calm - N/A   Clear
6:05 AM 42.8 °F - 41.0 °F 93% 30.30 in 1.5 mi Calm Calm - N/A   Clear
6:06 AM 42.8 °F - 41.0 °F 93% 30.30 in 1.0 mi Calm Calm - N/A   Clear
6:08 AM 42.8 °F - 41.0 °F 93% 30.30 in 0.8 mi Calm Calm - N/A   Clear
6:10 AM 42.8 °F - 41.0 °F 93% 30.30 in 0.5 mi Calm Calm - N/A Fog Fog
6:14 AM 42.8 °F - 42.8 °F 100% 30.30 in 0.2 mi Calm Calm - N/A Fog Fog
6:46 AM 41.0 °F - 41.0 °F 100% 30.30 in 0.5 mi Calm Calm - N/A Fog Fog
6:48 AM 41.0 °F - 41.0 °F 100% 30.30 in 0.8 mi Calm Calm - N/A   Clear
6:49 AM 41.0 °F - 41.0 °F 100% 30.31 in 1.0 mi Calm Calm - N/A   Clear
6:51 AM 41.0 °F - 41.0 °F 100% 30.31 in 1.2 mi Calm Calm - N/A   Clear
6:52 AM 41.0 °F - 41.0 °F 100% 30.31 in 1.5 mi Calm Calm - N/A   Clear
6:54 AM 41.0 °F - 41.0 °F 100% 30.31 in 2.0 mi Calm Calm - N/A   Clear
6:55 AM 41.9 °F - 41.0 °F 97% 30.31 in 1.8 mi Calm Calm - N/A   Clear
6:56 AM 41.0 °F 39.0 °F 41.0 °F 100% 30.31 in 2.5 mi North 3.5 mph - N/A   Clear
6:58 AM 41.0 °F 39.0 °F 41.0 °F 100% 30.31 in 3.0 mi North 3.5 mph - N/A   Clear
7:11 AM 41.0 °F - 41.0 °F 100% 30.31 in 2.0 mi Calm Calm - N/A   Clear
7:12 AM 41.0 °F - 41.0 °F 100% 30.31 in 1.8 mi Calm Calm - N/A   Clear
7:21 AM 42.8 °F - 42.8 °F 100% 30.31 in 2.0 mi Calm Calm - N/A   Clear
7:22 AM 42.8 °F - 42.8 °F 100% 30.31 in 3.0 mi Calm Calm - N/A   Clear
7:30 AM 44.6 °F - 42.8 °F 93% 30.31 in 2.5 mi Calm Calm - N/A   Clear
7:40 AM 46.4 °F - 44.6 °F 93% 30.31 in 3.0 mi Calm Calm - N/A   Clear
7:55 AM 48.0 °F - 47.5 °F 98% 30.32 in 4.0 mi Calm Calm - N/A   Scattered Clouds
8:01 AM 48.2 °F - 48.2 °F 100% 30.32 in 2.5 mi Calm Calm - N/A   Partly Cloudy
8:02 AM 48.2 °F - 48.2 °F 100% 30.32 in 2.0 mi Calm Calm - N/A   Partly Cloudy
8:03 AM 48.2 °F - 48.2 °F 100% 30.32 in 1.8 mi Calm Calm - N/A   Partly Cloudy
8:13 AM 50.0 °F - 48.2 °F 94% 30.32 in 2.0 mi Calm Calm - N/A   Partly Cloudy
8:15 AM 50.0 °F - 48.2 °F 94% 30.32 in 2.5 mi Calm Calm - N/A   Partly Cloudy
8:17 AM 50.0 °F - 50.0 °F 100% 30.32 in 3.0 mi Calm Calm - N/A   Partly Cloudy
8:55 AM 56.7 °F - 51.8 °F 84% 30.32 in 3.0 mi East 2.3 mph - N/A   Scattered Clouds
9:55 AM 64.2 °F - 53.1 °F 67% 30.31 in 10.0 mi South 3.5 mph - N/A   Scattered Clouds
10:55 AM 68.5 °F - 54.9 °F 62% 30.27 in 10.0 mi SSW 9.2 mph - N/A   Scattered Clouds
11:55 AM 67.3 °F - 54.7 °F 64% 30.24 in 10.0 mi South 16.1 mph 20.7 mph N/A   Mostly Cloudy
12:55 PM 68.7 °F - 55.2 °F 62% 30.23 in 10.0 mi SSW 12.7 mph 19.6 mph N/A   Mostly Cloudy
1:55 PM 68.2 °F - 53.1 °F 58% 30.21 in 10.0 mi SSW 15.0 mph - N/A   Mostly Cloudy
2:55 PM 69.3 °F - 51.3 °F 53% 30.22 in 10.0 mi SSW 13.8 mph - N/A   Mostly Cloudy
3:55 PM 67.3 °F - 51.6 °F 57% 30.20 in 10.0 mi SW 12.7 mph - N/A   Scattered Clouds
4:55 PM 65.8 °F - 53.6 °F 65% 30.20 in 10.0 mi SSW 9.2 mph - N/A   Mostly Cloudy
5:55 PM 64.0 °F - 54.3 °F 71% 30.20 in 10.0 mi SSW 9.2 mph - N/A   Mostly Cloudy
6:55 PM 64.0 °F - 54.3 °F 71% 30.20 in 10.0 mi SSW 5.8 mph - N/A   Scattered Clouds
7:55 PM 56.3 °F - 52.5 °F 87% 30.19 in 10.0 mi SSW 5.8 mph - N/A   Partly Cloudy
8:55 PM 53.4 °F - 51.6 °F 94% 30.22 in 10.0 mi Calm Calm - N/A   Partly Cloudy
9:55 PM 52.0 °F - 50.7 °F 95% 30.22 in 10.0 mi West 3.5 mph - N/A   Clear
10:55 PM 59.0 °F - 55.4 °F 88% 30.22 in 10.0 mi SSW 5.8 mph - N/A   Clear
11:55 PM 53.4 °F - 52.0 °F 95% 30.21 in 10.0 mi SSW 5.8 mph - N/A   Clear